Regional Weather Roundup
Issued by NWS Pendleton, OR

Home | Current Version | Previous Version | Text Only | Print | Product List | Glossary On
Versions: 1 2 3 4 5 6 7 8 9 10 11 12 13 14 15 16 17 18 19 20 21 22 23 24 25 26 27 28 29 30 31 32 33 34 35 36 37 38 39 40 41 42 43 44 45 46 47 48 49 50
000
ASUS46 KPDT 211325
RWRPDT
PENDLETON REGIONAL WEATHER ROUNDUP
NATIONAL WEATHER SERVICE PENDLETON OREGON
600 AM PDT TUE APR 21 2015

NOTE: FAIR INDICATES FEW OR NO CLOUDS BELOW 12,000 FEET WITH NO
SIGNIFICANT WEATHER AND/OR OBSTRUCTIONS TO VISIBILITY.

# INDICATES UNOFFICIAL STATION AND DATA

WAZ520-211410-
EAST SLOPES OF WASHINGTON CASCADES

CITY            SKY/WX      TMP DP  RH  WIND    PRES   REMARKS
#BULLFROG 2SW   N/A         39  33  79  S1      27.46F
#BUMPING DAM    N/A         36  N/A N/A E1      N/A
#CLE ELUM HS    N/A         39  34  82  CALM    29.80S
#CLE ELUM LAKE  N/A         49  32  52  CALM    29.75F
#CLIFFDEL 2NW   N/A         36  31  82  CALM    N/A
#GLENWOOD       N/A         32  31  96  CALM    29.83R
#MANASTASH CYN  N/A         43  28  55  CALM    29.83S
#NELSON         N/A         37  34  89  CALM    29.83S
#NELSON 3SW     N/A         42  34  73  CALM    30.00S
#NILE           N/A         36  33  89  CALM    29.12R
#RONALD 2NW     N/A         46  33  60  CALM    29.74S
#SNOWDEN        N/A         43  29  57  CALM    N/A
#TEANAWAY 4NE   N/A         37  35  92  W2      N/A
#TROUT LAKE 1NE N/A         40  36  85  NW2     29.81S
$$

WAZ521-211410-
SIMCOE HIGHLANDS

CITY            SKY/WX      TMP DP  RH  WIND    PRES   REMARKS
#BICKLETON HS   N/A         45  26  47  CALM    N/A
#CENTERVILLE 4W N/A         52  41  66  SW5     29.58S
#CENTERVILLE 1SWN/A         36  31  82  CALM    29.79R
#GOLDENDALE     N/A         39  34  82  E2      N/A
#GOLDENDALE 1NE N/A         37  27  67  N2      N/A
#GOODNOE HILLS  N/A         50  39  66  W2      N/A
#LYLE 6NE       N/A         50  41  71  CALM    29.76S
$$

WAZ026-211410-
KITTITAS VALLEY

CITY            SKY/WX      TMP DP  RH  WIND    PRES   REMARKS
ELLENSBURG AP   PTCLDY      42  34  73  CALM    29.82S
YTC-OPS AREA    CLEAR       53  28  38  W23     29.80S
#ELLENSBURG CWU N/A         42  35  76  CALM    29.74R
#ELLENSBURG 3NE N/A         43  37  79  CALM    29.84R
#ELLENSBURG 1E  N/A         38  32  79  CALM    N/A
#KITTITAS 4N    N/A         44  34  68  N1      28.15S
#KITTITAS 3S    N/A         35  31  85  CALM    29.79S
#THORP 6N       N/A         42  36  79  N7      29.80R
$$

WAZ027-211410-
YAKIMA VALLEY

CITY            SKY/WX      TMP DP  RH  WIND    PRES   REMARKS
SUNNYSIDE AP    CLEAR       40  34  79  CALM    29.81R
YAKIMA AIRPORT  PTCLDY      43  36  76  W6      29.82R
YAKIMA-VAGABOND PTCLDY      44  36  73  E2      29.82R
#DONALD 2NE     N/A         54  27  35  CALM    28.66R
#GRANDVIEW      N/A         45  35  68  CALM    29.80R
#MABTON         N/A         44  34  68  CALM    29.80R
#MOXEE 2E       N/A         44  26  49  CALM    29.92S
#NACHES 2SW     N/A         53  36  52  W9      29.81S
#OUTLOOK DOT    N/A         N/A N/A N/A E2      N/A
#SELAH 8E       N/A         41  30  65  E3      N/A
#TERRACE HTS    N/A         46  36  68  CALM    29.75R
#WAPATO 4NE     N/A         54  27  35  CALM    28.66R
#WEST VALLEY    N/A         45  37  73  CALM    29.77S
#W YAKIMA       N/A         52  37  56  N1      29.78S
#WHITE SWAN 5E  N/A         40  36  85  NW1     29.79S
$$

WAZ028-211410-
LOWER COLUMBIA BASIN...WASHINGTON

CITY            SKY/WX      TMP DP  RH  WIND    PRES   REMARKS
PASCO           CLEAR       40  37  89  NE3     29.80S
PROSSER AWOS    N/A         41  37  86  N2      29.84R
RICHLAND AWOS   PTCLDY      48  43  83  SE3     29.80S
#BASIN CITY 5SW N/A         42  38  86  E2      29.79S
#BENTON CITY    N/A         46  38  73  CALM    29.70R
#CONNELL 5N     N/A         41  34  76  CALM    29.78S
#CONNELL 5NW    N/A         42  35  76  CALM    29.75R
#ELTOPIA        N/A         44  38  79  CALM    29.75S
#ELTOPIA 6NW    N/A         50  38  63  E1      28.77S
#KAHLOTUS       N/A         42  38  86  S12     29.78S WCI 35
#KENNEWICK      N/A         39  33  79  S1      27.46F
#KENNEWICK 3S   N/A         55  36  49  CALM    29.77S
#PATERSON       N/A         46  38  73  CALM    29.79R
#PROSSER        N/A         53  32  45  CALM    29.78R
#SAGEMOOR 2W    N/A         44  39  82  CALM    29.63S
#TOUCHET 2S     N/A         37  35  92  CALM    29.79R
#WEST PASCO     N/A         45  37  73  CALM    29.78R
$$

WAZ029-211410-
FOOTHILLS OF THE BLUES...WASHINGTON

CITY            SKY/WX      TMP DP  RH  WIND    PRES   REMARKS
WALLA WALLA AP  CLEAR       56  39  53  E10     29.80S
#CLYDE 6NW      N/A         44  37  76  CALM    29.78S
#DAYTON SCHOOL  N/A         48  33  56  N5      29.85R
#LOWDEN 2SE     N/A         40  38  92  CALM    29.77R
#PLEASANT VIEW 1N/A         51  37  59  CALM    29.80S
#PRESCOTT       N/A         45  40  82  CALM    29.78S
#SUDBURY        N/A         43  N/A N/A CALM    N/A
#WHITMAN COLLEGEN/A         56  40  55  E1      29.82S
#WAITSBURG 5S   N/A         53  39  59  E6      29.86S
#WAITSBURG 8N   N/A         39  22  50  CALM    29.68S
#WALLA WALLA 5E N/A         52  41  66  NE2     N/A
#WHITMAN MISSIONN/A         42  39  89  CALM    29.81R
$$

WAZ030-211410-
BLUE MOUNTAINS...WASHINGTON

CITY            SKY/WX      TMP DP  RH  WIND    PRES   REMARKS
#DAYTON 8SE     N/A         44  38  79  E3      29.63R
#DIXIE 5SE      N/A         57  31  37  CALM    29.78S
$$

ORZ009-041-WAZ024-211410-
COLUMBIA RIVER GORGE

CITY            SKY/WX      TMP DP  RH  WIND    PRES   REMARKS
HOOD RIVER AP   PTCLDY      45  39  79  CALM    29.85S
THE DALLES AP   PTCLDY      52  41  66  CALM    29.82R
#ARLINGTON AIRPON/A         49  41  74  W7      31.75F
#CELILO DOT     N/A         54  40  59  S3      N/A
#LYLE           N/A         52  42  69  NE6     29.84R
#MOSIER 1S      N/A         49  35  58  N3      29.82S
#MURDOCK        N/A         55  46  72  W8      29.83S
#RUFUS DOT      N/A         50  42  74  S6      N/A

$$

ORZ510-211410-
NORTH CENTRAL OREGON

CITY            SKY/WX      TMP DP  RH  WIND    PRES   REMARKS
#CHENOWITH 1W   N/A         50  41  71  NW23    N/A
#COW CYN RST AREN/A         51  51  100 SE5     N/A
#DUFUR 9E       N/A         56  37  49  SW5     29.81S
#GRASS VALLEY 1SN/A         44  35  70  SW6     29.83R
#KENT DOT       N/A         46  29  51  S3      N/A
#MAUPIN SCHOOL  N/A         46  36  68  CALM    29.87R
#MORO SCHOOL    N/A         44  39  82  CALM    29.85S
#SHANIKO 5WSW   N/A         53  26  35  S2      N/A
#SHANIKO 4NW    N/A         55  30  38  W3      29.87S
#TYGH VALLEY 2NEN/A         42  36  79  N2      29.82R
#WAPANITIA AIRPON/A         45  37  73  CALM    29.81S
#WASCO DOT      N/A         40  37  89  CALM    N/A
#WASCO AIRPORT  N/A         50  39  66  W5      N/A
#WASCO 5NE      N/A         51  41  68  W7      29.78F
$$

ORZ511-211410-
CENTRAL OREGON

CITY            SKY/WX      TMP DP  RH  WIND    PRES   REMARKS
BEND AIRPORT    PTCLDY      41  32  70  SW8     29.88S
MADRAS AIRPORT  PTCLDY      39  34  82  S7      29.88R
PRINEVILLE AP   PTCLDY      32  27  82  CALM    29.89R
REDMOND AIRPORT PTCLDY      30  25  81  S5      29.88R
#BEND 6E        N/A         42  30  62  CALM    29.76R
#BEND 1SW       N/A         38  32  79  NW1     N/A
#BEND-AWBREY    N/A         46  35  65  SE1     29.79S
#BEND-KIM LN    N/A         44  34  68  SW8     29.85S
#CROOKED RVR RANN/A         40  31  70  CALM    29.82R
#CULVER         N/A         39  33  79  CALM    29.83S
#LAKE BILLY CHINN/A         44  26  49  CALM    29.97R
#MADRAS         N/A         42  34  73  S5      N/A
#POWELL BUTTE 3EN/A         39  29  67  S3      N/A
#POWELL BUTTE   N/A         40  27  59  S1      29.52R
#PRINEVILLE 3N  N/A         32  30  92  SE2     29.83R
#WARM SPRINGS   N/A         41  35  79  CALM    29.84R

$$


ORZ509-211410-
EAST SLOPES OF OREGON CASCADES

CITY            SKY/WX      TMP DP  RH  WIND    PRES   REMARKS
#BLUE BOX PASS  N/A         46  -7  10  NW1     N/A
#CAMP SHERMAN   N/A         31  28  88  CALM    29.83R
#LA PINE 4NW    N/A         26  22  85  CALM    29.90R
#LAVA BUTTE DOT N/A         33  30  89  NE2     N/A
#SISTERS AIRPOR N/A         31  31  100 CALM    30.17S
#SISTERS ODOT   N/A         33  N/A N/A CALM    N/A
#SISTERS 1NW    N/A         33  30  89  VRB5    N/A
#SISTERS 3N     N/A         31  21  66  CALM    29.93S
#SUNRIVER       N/A         30  26  85  CALM    29.75S
#TUMALO 3W      N/A         53  35  50  CALM    29.66S
#WANOGA BUTTE D N/A         49  23  36  CALM    N/A

$$

ORZ044-211410-
LOWER COLUMBIA BASIN...OREGON

CITY            SKY/WX      TMP DP  RH  WIND    PRES   REMARKS
HERMISTON       PTCLDY      43  36  76  CALM    29.81R
#BOARDMAN 8SW   N/A         50  38  63  CALM    29.79R
#ECHO 8SW       N/A         43  35  73  SW2     29.83R
#IONE SCHOOL    N/A         46  32  58  CALM    29.80R
#IRRIGON 4NW    N/A         42  39  89  SE1     N/A
#UMATILLA SCHOOLN/A         41  41  100 CALM    29.85S
#UMATILLA       N/A         72  39  30  CALM    29.73R
$$

ORZ507-211410-
NORTHERN FOOTHILLS OF THE BLUES

CITY            SKY/WX      TMP DP  RH  WIND    PRES   REMARKS
PENDLETON AIRPT CLEAR       46  35  65  SE6     29.81S
#ADAMS 3WNW     N/A         37  34  89  CALM    29.82R
#ATHENA         N/A         42  35  76  CALM    29.82S
#CAYUSE         N/A         51  38  61  E9      29.78R
#HELIX SCHOOL   N/A         38  34  85  CALM    29.80R
#HELIX 3N       N/A         52  35  52  S5      29.80S
#HOLDMAN 5SE    N/A         45  38  76  E3      29.83R
#HOLDMAN 6E     N/A         43  37  79  CALM    29.61R
#M-F FERNDALE   N/A         45  38  76  CALM    29.79S
#M-F GROVE ELEM N/A         56  35  45  CALM    29.79S
#M-FREEWATER 5SEN/A         54  39  57  E7      29.80F
#PENDLETON DNTN N/A         41  32  70  CALM    29.81S
#PDT AQUATIC CTRN/A         42  28  57  CALM    29.83S
#PENDLETON 5NE  N/A         40  35  82  CALM    29.80R
#PDT SUNRIDGE   N/A         37  33  85  CALM    29.84R
#PENDLETON 7NW  N/A         41  34  76  CALM    29.78R
#PILOT ROCK     N/A         50  31  48  SE5     29.85R
#TUTUILLA       N/A         36  33  89  CALM    29.82R
#UMAPINE 2E     N/A         42  38  86  CALM    29.77R
#WESTON SCHOOL  N/A         53  33  46  CALM    29.81S

$$

ORZ508-211410-
SOUTHERN FOOTHILLS OF THE BLUES

CITY            SKY/WX      TMP DP  RH  WIND    PRES   REMARKS
LEXINGTON       PTCLDY      50  34  54  SE12    29.85R
#AJAX           N/A         52  28  39  SE1     29.79S
#CONDON SCHOOL  N/A         45  33  63  CALM    29.83R
#CONDON 5W      N/A         53  31  43  W6      29.83S
#FOSSIL SCHOOL  N/A         38  32  79  CALM    29.85R
#HEPPNER EOC    N/A         47  34  60  E6      29.73R
#HEPPNER 4NE    N/A         55  33  43  S3      29.78S
#LEXINGTON 2SE  N/A         49  35  58  SE7     29.80R
#MIKKALO        N/A         52  34  50  E2      29.83R
#RUGGS 5NE      N/A         45  29  53  SE2     29.98F
#RUGGS 2SW      N/A         50  32  50  SW8     29.81R

$$

ORZ502-503-211410-
BLUE MOUNTAINS

CITY            SKY/WX      TMP DP  RH  WIND    PRES   REMARKS
MEACHAM         CLEAR       29  26  88  CALM    29.88S
#BATTLE MTN DOT N/A         39  38  96  S3      N/A
#HARDMAN 10S    N/A         44  32  62  CALM    29.90S
#HEPPNER 15SE   N/A         40  32  73  W1      29.79S
#LADD CYN SMT   N/A         34  31  89  NW2     N/A
#LADD CREEK ODOTN/A         37  33  85  S3      N/A
#LONG CREEK HS  N/A         38  35  89  CALM    29.83F
#N POWDER DOT   N/A         32  31  96  CALM    N/A
#PIKES PEAK     N/A         58  30  34  CALM    27.99S
#TOLLGATE       N/A         43  35  73  CALM    29.84S
#TROY SCHOOL    N/A         40  37  89  CALM    29.73R
#UKIAH          N/A         27  25  92  CALM    29.94R
#WESTON 4E      N/A         50  34  54  E7      29.72S
$$

ORZ505-211410-
JOHN DAY BASIN

CITY            SKY/WX      TMP DP  RH  WIND    PRES   REMARKS
JOHN DAY        CLEAR       43  32  65  SE9     29.91R
#JOHN DAY KJDY  N/A         36  31  82  N2      29.95R
#DAYVILLE SCHOOLN/A         39  32  76  CALM    29.89R
#MITCHELL       N/A         42  33  70  E5      30.00S
#MITCHELL 8NW   N/A         51  29  42  CALM    29.72S
#MONUMENT HS    N/A         36  32  85  CALM    29.90S
#MT. VERNON 5SE N/A         42  31  65  CALM    29.85S
#WINLOCK        N/A         42  32  67  CALM    29.96S
$$

ORZ506-211410-
OCHOCO AND JOHN DAY HIGHLANDS

CITY            SKY/WX      TMP DP  RH  WIND    PRES   REMARKS
#BUCK CREEK DOT N/A         44  44  100 CALM    N/A
#HORSE RIDGE DO N/A         22  14  71  CALM    N/A
#KEYES SMT DOT  N/A         43  27  53  CALM    N/A
#PAULINA SCHOOL N/A         27  23  85  CALM    29.88R
#PINE MTN OBS   N/A         47  25  42  E3      N/A
#PRAIRIE CITY   N/A         27  25  92  NE1     30.09S
#SENECA         N/A         26  N/A N/A CALM    N/A
#SENECA 9NW     N/A         25  23  92  CALM    29.87S
$$

ORZ049-211410-
GRANDE RONDE VALLEY

CITY            SKY/WX      TMP DP  RH  WIND    PRES   REMARKS
LA GRANDE       CLEAR       36  25  64  CALM    29.88R
#COVE           N/A         35  33  92  CALM    29.90R
#COVE SCHOOL    N/A         36  32  85  CALM    29.87R
#ELGIN 3N       N/A         33  29  85  CALM    29.87S
#ELGIN 1E       N/A         34  30  85  CALM    N/A
#IMBLER SCHOOL  N/A         51  37  59  NW3     29.86R
#ISLAND CITY 4N N/A         46  43  89  CALM    29.89R
#LADD CYN DOT   N/A         42  33  70  SE10    N/A
#LA GRANDE ELEM N/A         41  34  76  CALM    29.92R
#UNION 1S       N/A         35  32  89  CALM    29.76S
$$

ORZ050-211410-
WALLOWA COUNTY

CITY            SKY/WX      TMP DP  RH  WIND    PRES   REMARKS
#ENTERPRISE HS  N/A         32  28  85  CALM    29.93R
#IMNAHA SCHOOL  N/A         43  36  76  S2      29.89R
#IMNAHA 10S     N/A         44  34  68  SW5     29.89R
#JOSEPH 3N      N/A         30  24  78  CALM    29.93R
#JOSEPH 3W      N/A         43  30  60  SW2     29.75S
#MT HOWARD 8000 N/A         38  25  59  CALM    29.97S
#PROMISE 1S     N/A         39  35  85  CALM    29.93R
#SHEEP RDG 7000 N/A         42  28  57  CALM    29.82R
#WALLOWA SCHOOL N/A         30  27  88  CALM    30.80R



$$



USA.gov is the U.S. government's official web portal to all federal, state and local government web resources and services.